Location: Peach Mountain Observatory
(42.3967°N, 83.9367°W)
Time: 23:45:47
(UTC-04:00)

deb Explorer IX - Pass Details

Date: 29 January 2020
Orbit: 547 x 1100 km, 38.8° (Epoch: 04 April)

Event Time Altitude Azimuth Distance (km) Brightness Sun altitude
Rises 03:09:10 0° 274° (W) 3,912 - -51.6°
Reaches altitude 10° 03:13:05 10° 256° (WSW) 2,940 - -50.9°
Maximum altitude 03:17:18 17° 220° (SW) 2,437 - -50.2°
Drops below altitude 10° 03:21:24 10° 183° (S) 2,819 - -49.5°
Sets 03:25:03 0° 164° (SSE) 3,680 - -48.9°
